FW8170 Weather Reports


Display with metric or nautical units.
time (UTC)temp
F
wind
direction
speed
MPH
gust
MPH
rain 1hr
in
rain 24hr
in
rain mn
in
humidity
%
barometer
mb
20260906044247 87 290 0.0 0.0 0.00 0.00 0.00 73 1016.6
20260906043744 87 275 0.0 0.0 0.00 0.00 0.00 73 1016.5
20260906043240 87 297 0.0 0.0 0.00 0.00 0.00 73 1016.6
20260906042739 87 286 0.0 0.0 0.00 0.00 0.00 72 1016.4
20260906042238 87 294 0.0 0.0 0.00 0.00 0.00 72 1016.4
20260906041734 87 292 0.0 1.0 0.00 0.00 0.00 71 1016.4
20260906041229 88 301 0.0 1.0 0.00 0.00 0.00 71 1016.4
20260906040724 88 300 1.0 2.0 0.00 0.00 0.00 71 1016.3
20260906040219 88 344 0.0 1.0 0.00 0.00 0.00 70 1016.3
20260906035714 88 341 0.0 0.0 0.00 0.00 0.00 70 1016.5
20260906035205 88 275 0.0 1.0 0.00 0.00 0.00 69 1016.4
20260906034704 88 268 0.0 1.0 0.00 0.00 0.00 69 1016.3
20260906034159 88 276 0.0 1.0 0.00 0.00 0.00 68 1016.2
20260906033655 88 305 0.0 1.0 0.00 0.00 0.00 68 1016.3
20260906033156 89 283 0.0 0.0 0.00 0.00 0.00 67 1016.3
20260906032652 89 276 0.0 1.0 0.00 0.00 0.00 66 1016.1
20260906032146 89 294 0.0 2.0 0.00 0.00 0.00 66 1016.0
20260906031641 89 300 0.0 1.0 0.00 0.00 0.00 65 1016.0
20260906031137 89 276 0.0 0.0 0.00 0.00 0.00 65 1015.9
20260906030636 89 284 0.0 2.0 0.00 0.00 0.00 64 1016.0
20260906030132 89 155 0.0 1.0 0.00 0.00 0.00 64 1016.2
20260906025631 88 282 0.0 1.0 0.00 0.00 0.00 64 1015.9
20260906025130 88 6 0.0 1.0 0.00 0.00 0.00 64 1015.8
20260906024625 88 283 0.0 1.0 0.00 0.00 0.00 64 1015.8
20260906024125 88 309 0.0 1.0 0.00 0.00 0.00 65 1015.8
20260906023621 88 296 0.0 0.0 0.00 0.00 0.00 64 1015.9
20260906023115 88 315 0.0 0.0 0.00 0.00 0.00 65 1015.5
20260906022610 88 297 0.0 0.0 0.00 0.00 0.00 64 1015.5
20260906022106 88 292 0.0 0.0 0.00 0.00 0.00 64 1015.4
20260906021602 88 306 0.0 0.0 0.00 0.00 0.00 64 1015.5
20260906021100 88 322 0.0 0.0 0.00 0.00 0.00 64 1015.4
20260906020600 89 295 0.0 0.0 0.00 0.00 0.00 63 1015.5
20260906020100 89 296 0.0 0.0 0.00 0.00 0.00 63 1015.2
20260906015554 89 304 0.0 0.0 0.00 0.00 0.00 63 1015.1
20260906015053 89 331 0.0 0.0 0.00 0.00 0.00 63 1015.1
20260906014548 89 279 0.0 0.0 0.00 0.00 0.00 63 1015.1
20260906014044 89 292 0.0 1.0 0.00 0.00 0.00 63 1014.9
20260906013539 90 304 0.0 0.0 0.00 0.00 0.00 62 1014.9
20260906013035 90 302 0.0 0.0 0.00 0.00 0.00 61 1014.8
20260906012530 90 296 0.0 0.0 0.00 0.00 0.00 61 1014.6
20260906012029 90 309 0.0 0.0 0.00 0.00 0.00 61 1014.7
20260906011526 91 292 0.0 0.0 0.00 0.00 0.00 61 1014.6
20260906011025 91 292 0.0 0.0 0.00 0.00 0.00 61 1014.5
20260906010520 91 311 0.0 0.0 0.00 0.00 0.00 60 1014.7
20260906010017 91 328 0.0 0.0 0.00 0.00 0.00 59 1014.7
20260906005516 91 314 0.0 1.0 0.00 0.00 0.00 59 1014.5
20260906005015 92 299 0.0 1.0 0.00 0.00 0.00 58 1014.4
20260906004515 92 280 0.0 0.0 0.00 0.00 0.00 57 1014.2
20260906004010 92 282 0.0 0.0 0.00 0.00 0.00 57 1014.3
20260906003505 93 269 0.0 1.0 0.00 0.00 0.00 56 1014.4
20260906003000 93 278 0.0 0.0 0.00 0.00 0.00 56 1014.5
20260906002455 94 288 0.0 0.0 0.00 0.00 0.00 55 1014.5
20260906001950 94 288 0.0 0.0 0.00 0.00 0.00 54 1014.4
20260906001446 94 264 0.0 0.0 0.00 0.00 0.00 53 1014.6
20260906000940 95 278 0.0 2.0 0.00 0.00 0.00 53 1014.4
20260906000435 95 292 0.0 0.0 0.00 0.00 0.00 52 1014.3
20260905235925 95 285 0.0 2.0 0.00 0.00 0.00 52 1014.3
20260905235424 95 313 0.0 1.0 0.00 0.00 0.00 51 1014.3
20260905234919 96 288 0.0 1.0 0.00 0.00 0.00 51 1014.3
20260905234414 96 300 0.0 1.0 0.00 0.00 0.00 51 1014.6
20260905233910 96 292 0.0 0.0 0.00 0.00 0.00 51 1014.5
20260905233405 96 10 1.0 1.0 0.00 0.00 0.00 50 1014.5
20260905232903 96 339 0.0 0.0 0.00 0.00 0.00 51 1014.5
20260905232400 96 325 1.0 1.0 0.00 0.00 0.00 50 1014.6
20260905231855 96 277 0.0 1.0 0.00 0.00 0.00 50 1014.6
20260905231350 96 292 0.0 0.0 0.00 0.00 0.00 50 1014.8
20260905230847 97 278 0.0 1.0 0.00 0.00 0.00 49 1014.5
20260905230344 97 290 0.0 1.0 0.00 0.00 0.00 49 1014.5
20260905225843 98 278 0.0 3.0 0.00 0.00 0.00 48 1014.7
20260905225339 99 37 0.0 0.0 0.00 0.00 0.00 47 1014.5
20260905224834 99 345 0.0 1.0 0.00 0.00 0.00 46 1014.5
20260905224329 98 348 0.0 1.0 0.00 0.00 0.00 48 1014.5
20260905223824 98 306 0.0 1.0 0.00 0.00 0.00 48 1014.2
20260905223322 98 291 0.0 1.0 0.00 0.00 0.00 48 1014.3
20260905222817 98 303 0.0 2.0 0.00 0.00 0.00 50 1014.5
20260905222315 98 40 0.0 0.0 0.00 0.00 0.00 50 1014.5
20260905221812 98 40 0.0 2.0 0.00 0.00 0.00 50 1014.4
20260905221309 98 285 0.0 1.0 0.00 0.00 0.00 49 1014.3
20260905220804 98 7 0.0 1.0 0.00 0.00 0.00 49 1014.6
20260905220300 98 47 1.0 2.0 0.00 0.00 0.00 48 1014.6
20260905215759 98 46 1.0 2.0 0.00 0.00 0.00 48 1014.6
20260905215255 99 298 0.0 0.0 0.00 0.00 0.00 48 1014.8
20260905214750 99 291 1.0 1.0 0.00 0.00 0.00 47 1014.5
20260905214246 99 264 0.0 0.0 0.00 0.00 0.00 48 1014.4
20260905213741 98 271 0.0 0.0 0.00 0.00 0.00 47 1014.5
20260905213237 98 29 1.0 2.0 0.00 0.00 0.00 47 1014.5
20260905212732 99 273 0.0 3.0 0.00 0.00 0.00 45 1014.6
20260905212232 99 43 0.0 2.0 0.00 0.00 0.00 45 1014.6
20260905211731 98 289 0.0 0.0 0.00 0.00 0.00 45 1014.6
20260905211226 98 9 0.0 1.0 0.00 0.00 0.00 46 1014.8
20260905210723 97 288 0.0 1.0 0.00 0.00 0.00 46 1014.6
20260905210223 97 292 0.0 0.0 0.00 0.00 0.00 46 1014.8
20260905205721 97 290 0.0 0.0 0.00 0.00 0.00 45 1014.7
20260905205217 97 290 0.0 1.0 0.00 0.00 0.00 45 1014.8
20260905204716 97 275 0.0 0.0 0.00 0.00 0.00 46 1014.7
20260905204212 97 236 1.0 1.0 0.00 0.00 0.00 47 1014.9
20260905203706 98 268 1.0 1.0 0.00 0.00 0.00 48 1015.0
20260905203202 98 299 0.0 0.0 0.00 0.00 0.00 47 1014.7
20260905202657 99 285 0.0 1.0 0.00 0.00 0.00 46 1014.9
20260905202152 99 293 0.0 2.0 0.00 0.00 0.00 46 1014.8
20260905201648 99 275 0.0 1.0 0.00 0.00 0.00 46 1014.8
20260905201147 100 303 0.0 2.0 0.00 0.00 0.00 44 1015.0
20260905200643 101 198 0.0 1.0 0.00 0.00 0.00 43 1015.0
20260905200138 100 356 1.0 2.0 0.00 0.00 0.00 43 1015.1
20260905195636 101 278 0.0 1.0 0.00 0.00 0.00 42 1015.0
20260905195131 101 306 0.0 1.0 0.00 0.00 0.00 43 1014.9
20260905194626 102 295 0.0 3.0 0.00 0.00 0.00 41 1015.4
20260905194125 102 335 1.0 2.0 0.00 0.00 0.00 42 1015.4
20260905193621 102 261 0.0 2.0 0.00 0.00 0.00 42 1015.6
20260905193115 102 261 0.0 1.0 0.00 0.00 0.00 42 1015.4
20260905192611 102 286 1.0 2.0 0.00 0.00 0.00 42 1015.6
20260905192108 102 266 0.0 3.0 0.00 0.00 0.00 42 1015.6
20260905191606 103 40 2.0 3.0 0.00 0.00 0.00 41 1015.7
20260905191105 103 14 1.0 2.0 0.00 0.00 0.00 42 1015.9
20260905190603 103 291 0.0 1.0 0.00 0.00 0.00 41 1015.6
20260905185601 103 276 0.0 1.0 0.00 0.00 0.00 41 1015.8
20260905185056 103 325 0.0 3.0 0.00 0.00 0.00 40 1015.7
20260905184551 105 271 1.0 5.0 0.00 0.00 0.00 41 1015.8
20260905184050 105 216 0.0 2.0 0.00 0.00 0.00 41 1016.0
20260905183549 104 296 0.0 2.0 0.00 0.00 0.00 41 1015.9
20260905183045 103 346 2.0 3.0 0.00 0.00 0.00 41 1016.0
20260905182544 104 337 1.0 1.0 0.00 0.00 0.00 42 1016.1
20260905182045 103 20 2.0 3.0 0.00 0.00 0.00 43 1016.1
20260905181545 102 315 0.0 1.0 0.00 0.00 0.00 46 1016.1
20260905181045 102 302 0.0 2.0 0.00 0.00 0.00 44 1016.1
20260905180545 102 57 0.0 0.0 0.00 0.00 0.00 46 1016.3
20260905180040 101 57 0.0 1.0 0.00 0.00 0.00 47 1016.4
20260905175539 100 57 0.0 1.0 0.00 0.00 0.00 48 1016.4
20260905175035 100 57 0.0 1.0 0.00 0.00 0.00 49 1016.3
20260905174530 100 296 2.0 2.0 0.00 0.00 0.00 49 1016.4
20260905174026 98 45 0.0 2.0 0.00 0.00 0.00 49 1016.5
20260905173522 100 299 0.0 0.0 0.00 0.00 0.00 49 1016.5
20260905173018 99 37 0.0 2.0 0.00 0.00 0.00 49 1016.6
20260905172516 99 283 0.0 1.0 0.00 0.00 0.00 49 1016.5
20260905172012 98 294 0.0 3.0 0.00 0.00 0.00 49 1016.6
20260905171508 99 306 0.0 2.0 0.00 0.00 0.00 49 1016.6
20260905171003 98 309 0.0 1.0 0.00 0.00 0.00 49 1016.9
20260905170500 99 28 1.0 2.0 0.00 0.00 0.00 49 1016.9
20260905165954 99 298 1.0 1.0 0.00 0.00 0.00 48 1016.9
20260905165449 99 41 0.0 0.0 0.00 0.00 0.00 49 1017.0
20260905164944 98 272 0.0 2.0 0.00 0.00 0.00 49 1016.9
20260905164438 98 321 0.0 2.0 0.00 0.00 0.00 52 1017.2
20260905163933 97 324 1.0 2.0 0.00 0.00 0.00 52 1017.1
20260905163430 96 313 0.0 1.0 0.00 0.00 0.00 54 1017.3
20260905162925 96 298 0.0 2.0 0.00 0.00 0.00 55 1017.2
20260905162420 95 273 0.0 1.0 0.00 0.00 0.00 55 1017.2
20260905161915 95 341 0.0 0.0 0.00 0.00 0.00 55 1017.2
20260905161414 95 293 0.0 2.0 0.00 0.00 0.00 55 1017.3
20260905160912 95 269 0.0 2.0 0.00 0.00 0.00 56 1017.4
20260905160406 94 252 0.0 1.0 0.00 0.00 0.00 57 1017.3
20260905155901 94 287 0.0 1.0 0.00 0.00 0.00 58 1017.3
20260905155401 93 32 3.0 5.0 0.00 0.00 0.00 58 1017.1
20260905154859 93 283 0.0 1.0 0.00 0.00 0.00 59 1017.5
20260905154355 93 302 0.0 1.0 0.00 0.00 0.00 59 1017.4
20260905153850 93 320 0.0 3.0 0.00 0.00 0.00 60 1017.5
20260905153347 92 263 0.0 1.0 0.00 0.00 0.00 62 1017.4
20260905152846 92 34 0.0 1.0 0.00 0.00 0.00 63 1017.3
20260905152346 93 7 2.0 2.0 0.00 0.00 0.00 62 1017.3
20260905151841 92 268 0.0 0.0 0.00 0.00 0.00 64 1017.5
20260905151337 91 246 0.0 1.0 0.00 0.00 0.00 64 1017.4
20260905150837 91 26 1.0 2.0 0.00 0.00 0.00 65 1017.6
20260905150331 90 304 0.0 1.0 0.00 0.00 0.00 66 1017.4
20260905145829 90 359 1.0 1.0 0.00 0.00 0.00 66 1017.3
20260905145328 89 330 1.0 1.0 0.00 0.00 0.00 66 1017.3
20260905144827 90 297 0.0 1.0 0.00 0.00 0.00 66 1017.4
20260905144323 89 296 0.0 3.0 0.00 0.00 0.00 67 1017.3
20260905143822 88 297 0.0 2.0 0.00 0.00 0.00 68 1017.4
20260905143316 88 332 0.0 2.0 0.00 0.00 0.00 69 1017.2
20260905142815 87 284 0.0 0.0 0.00 0.00 0.00 69 1017.2
20260905142309 87 286 0.0 0.0 0.00 0.00 0.00 70 1017.2
20260905141806 87 327 0.0 0.0 0.00 0.00 0.00 69 1017.5
20260905141301 87 281 0.0 0.0 0.00 0.00 0.00 69 1017.4
20260905140757 86 357 1.0 1.0 0.00 0.00 0.00 70 1017.3
20260905140256 86 320 0.0 1.0 0.00 0.00 0.00 70 1017.4
20260905135755 86 295 0.0 0.0 0.00 0.00 0.00 71 1017.4
20260905135252 85 288 1.0 2.0 0.00 0.00 0.00 71 1017.4
20260905134752 85 292 0.0 1.0 0.00 0.00 0.00 73 1017.1
20260905134251 85 296 1.0 2.0 0.00 0.00 0.00 72 1017.2
20260905133745 84 291 0.0 1.0 0.00 0.00 0.00 74 1017.1
20260905133241 84 309 0.0 1.0 0.00 0.00 0.00 75 1016.9
20260905132739 84 0 0.0 1.0 0.00 0.00 0.00 75 1016.9
20260905132235 83 291 0.0 1.0 0.00 0.00 0.00 76 1017.0
20260905131730 83 308 0.0 1.0 0.00 0.00 0.00 76 1017.0
20260905131225 83 308 0.0 0.0 0.00 0.00 0.00 77 1017.1
20260905130720 82 297 0.0 0.0 0.00 0.00 0.00 77 1017.2
20260905130219 82 297 0.0 1.0 0.00 0.00 0.00 77 1016.9
20260905125714 82 307 0.0 1.0 0.00 0.00 0.00 77 1017.1
20260905125209 82 320 0.0 1.0 0.00 0.00 0.00 78 1017.1
20260905124706 81 317 0.0 2.0 0.00 0.00 0.00 78 1016.8
20260905124202 81 55 0.0 0.0 0.00 0.00 0.00 79 1016.9
20260905123656 81 294 0.0 0.0 0.00 0.00 0.00 80 1016.7
20260905123154 80 299 0.0 0.0 0.00 0.00 0.00 80 1016.7
20260905122653 80 290 0.0 0.0 0.00 0.00 0.00 81 1016.7
20260905122148 80 293 0.0 0.0 0.00 0.00 0.00 81 1016.6
20260905121642 80 293 0.0 0.0 0.00 0.00 0.00 81 1016.7
20260905121138 80 279 0.0 0.0 0.00 0.00 0.00 81 1016.8
20260905120637 80 279 0.0 0.0 0.00 0.00 0.00 81 1016.6
20260905120132 80 283 0.0 0.0 0.00 0.00 0.00 81 1016.3
20260905115631 80 272 0.0 0.0 0.00 0.00 0.00 81 1016.4
20260905115127 80 278 0.0 0.0 0.00 0.00 0.00 81 1016.3
20260905114626 80 297 0.0 0.0 0.00 0.00 0.00 81 1016.3
20260905114125 80 271 0.0 0.0 0.00 0.00 0.00 80 1016.5
20260905113620 80 273 0.0 0.0 0.00 0.00 0.00 80 1016.3
20260905113116 80 278 0.0 0.0 0.00 0.00 0.00 80 1016.3
20260905112618 80 272 0.0 0.0 0.00 0.00 0.00 81 1016.3
20260905112112 80 283 0.0 0.0 0.00 0.00 0.00 81 1016.3
20260905111606 79 283 0.0 0.0 0.00 0.00 0.00 81 1016.3
20260905111105 79 280 0.0 0.0 0.00 0.00 0.00 82 1016.3
20260905110604 80 294 0.0 0.0 0.00 0.00 0.00 82 1016.2
20260905110100 80 311 0.0 0.0 0.00 0.00 0.00 82 1016.0
20260905105554 80 297 0.0 0.0 0.00 0.00 0.00 81 1016.1
20260905105053 80 291 0.0 0.0 0.00 0.00 0.00 81 1016.1
20260905104550 80 291 0.0 0.0 0.00 0.00 0.00 81 1016.0
20260905104049 80 296 0.0 0.0 0.00 0.00 0.00 81 1016.2
20260905103544 80 286 0.0 0.0 0.00 0.00 0.00 81 1016.2
20260905103041 80 286 0.0 0.0 0.00 0.00 0.00 81 1016.2
20260905102536 80 292 0.0 0.0 0.00 0.00 0.00 81 1016.1
20260905102033 80 286 0.0 0.0 0.00 0.00 0.00 82 1016.3
20260905101531 80 288 0.0 0.0 0.00 0.00 0.00 82 1016.2
20260905101029 80 288 0.0 0.0 0.00 0.00 0.00 82 1016.4
20260905100526 80 286 0.0 0.0 0.00 0.00 0.00 82 1016.3
20260905100025 80 286 0.0 0.0 0.00 0.00 0.00 82 1016.1
20260905095520 80 286 0.0 0.0 0.00 0.00 0.00 82 1016.3
20260905095015 80 286 0.0 0.0 0.00 0.00 0.00 82 1016.1
20260905094510 80 286 0.0 0.0 0.00 0.00 0.00 81 1016.2
20260905094009 80 299 0.0 0.0 0.00 0.00 0.00 81 1016.4
20260905093504 80 299 0.0 0.0 0.00 0.00 0.00 81 1016.0
20260905093001 80 292 0.0 0.0 0.00 0.00 0.00 81 1016.2
20260905092455 80 302 0.0 0.0 0.00 0.00 0.00 80 1016.1
20260905091951 81 285 0.0 0.0 0.00 0.00 0.00 80 1016.0
20260905091451 81 285 0.0 0.0 0.00 0.00 0.00 80 1016.0
20260905090950 81 285 0.0 0.0 0.00 0.00 0.00 79 1016.1
20260905090445 81 285 0.0 0.0 0.00 0.00 0.00 79 1016.3
20260905085944 81 285 0.0 0.0 0.00 0.00 0.00 79 1016.1
20260905085438 81 285 0.0 0.0 0.00 0.00 0.00 79 1016.2
20260905084934 81 284 0.0 0.0 0.00 0.00 0.00 79 1016.1
20260905084433 81 284 0.0 0.0 0.00 0.00 0.00 80 1016.2
20260905083928 81 284 0.0 0.0 0.00 0.00 0.00 80 1016.0
20260905083424 81 294 0.0 0.0 0.00 0.00 0.00 80 1016.3
20260905082920 81 294 0.0 0.0 0.00 0.00 0.00 80 1016.4
20260905082415 81 294 0.0 0.0 0.00 0.00 0.00 79 1016.3
20260905081910 81 287 0.0 0.0 0.00 0.00 0.00 79 1016.5
20260905081405 81 290 0.0 0.0 0.00 0.00 0.00 80 1016.6
20260905080903 81 302 0.0 0.0 0.00 0.00 0.00 80 1016.6
20260905080358 81 288 0.0 0.0 0.00 0.00 0.00 79 1016.6
20260905075857 81 298 0.0 0.0 0.00 0.00 0.00 79 1016.5
20260905075357 81 289 0.0 0.0 0.00 0.00 0.00 78 1016.6
20260905074856 81 288 0.0 0.0 0.00 0.00 0.00 78 1016.6
20260905074352 81 297 0.0 0.0 0.00 0.00 0.00 78 1016.7
20260905073848 81 300 0.0 0.0 0.00 0.00 0.00 78 1016.4
20260905073343 81 298 0.0 0.0 0.00 0.00 0.00 78 1016.5
20260905072838 81 303 0.0 0.0 0.00 0.00 0.00 78 1016.4
20260905072332 82 305 0.0 0.0 0.00 0.00 0.00 77 1016.6
20260905071829 82 300 0.0 0.0 0.00 0.00 0.00 77 1016.6
20260905071325 82 300 0.0 0.0 0.00 0.00 0.00 77 1016.5
20260905070820 82 300 0.0 0.0 0.00 0.00 0.00 77 1016.7
20260905070316 82 318 0.0 0.0 0.00 0.00 0.00 77 1016.7
20260905065815 82 308 0.0 0.0 0.00 0.00 0.00 77 1016.6
20260905065313 82 298 0.0 0.0 0.00 0.00 0.00 77 1016.8
20260905064809 82 298 0.0 0.0 0.00 0.00 0.00 77 1016.7
20260905064305 82 319 0.0 0.0 0.00 0.00 0.00 76 1016.7
20260905063803 82 299 0.0 0.0 0.00 0.00 0.00 76 1016.6
20260905063259 82 305 0.0 0.0 0.00 0.00 0.00 76 1016.5
20260905062755 82 291 0.0 0.0 0.00 0.00 0.00 76 1016.8
20260905062255 82 291 0.0 0.0 0.00 0.00 0.00 75 1016.7
20260905061749 82 295 0.0 0.0 0.00 0.00 0.00 75 1016.6
20260905061244 82 291 0.0 0.0 0.00 0.00 0.00 75 1016.8
20260905060738 82 290 0.0 0.0 0.00 0.00 0.00 76 1016.7
20260905060236 82 300 0.0 0.0 0.00 0.00 0.00 76 1016.9
20260905055734 83 304 0.0 0.0 0.00 0.00 0.00 76 1016.7
20260905055229 83 316 0.0 0.0 0.00 0.00 0.00 76 1016.8
20260905054724 83 286 0.0 0.0 0.00 0.00 0.00 75 1016.7
20260905054220 83 297 0.0 0.0 0.00 0.00 0.00 76 1016.9
20260905053714 83 317 0.0 0.0 0.00 0.00 0.00 76 1016.9
20260905053209 83 331 0.0 1.0 0.00 0.00 0.00 76 1016.8
20260905052709 83 306 0.0 0.0 0.00 0.00 0.00 74 1016.9
20260905052204 83 282 0.0 0.0 0.00 0.00 0.00 76 1016.9
20260905051703 83 289 0.0 0.0 0.00 0.00 0.00 75 1016.9
20260905051200 83 296 0.0 0.0 0.00 0.00 0.00 76 1017.1
20260905050656 83 302 0.0 0.0 0.00 0.00 0.00 75 1016.8
20260905050153 83 283 0.0 0.0 0.00 0.00 0.00 75 1017.0
20260905045652 83 283 0.0 0.0 0.00 0.00 0.00 75 1016.7
20260905045148 83 292 0.0 0.0 0.00 0.00 0.00 75 1016.8
20260905044643 83 310 0.0 0.0 0.00 0.00 0.00 76 1016.7